User: anonymous   Login
Location: Unspecified
(0.0000°N, 0.0000°E)
Time: 21:46:54
(UTC+00:00)
Language:

SEEDS - Orbit

View from above orbital plane
View from above orbital plane
View from above satellite
View from above satellite

Ground track
Ground track

The orbit data is extracted from the following two-line orbital elements,

1 32791U 08021J   18115.03587367  .00000271  00000-0  33082-4 0  9998
2 32791  97.5396 134.9828 0013149 188.6329 171.4666 14.90522156541593
Epoch (UTC): 25 April 2018 00:51:39
Eccentricity: 0.0013149
inclination: 97.5396°
perigee height: 587 km
apogee height: 605 km
right ascension of ascending node: 134.9828°
argument of perigee: 188.6329°
revolutions per day: 14.90522156
mean anomaly at epoch: 171.4666°
orbit number at epoch: 54159

The dashed part of the orbit path shows where the satellite is in the earth's shadow,  

DLR